| time (UTC) | temp F | wind direction | speed knots | gust knots | rain 1hr in | rain 24hr in | rain mn in | humidity % | barometer mb |
| 20260506034009 | 67 | 12 | 0.0 | 0.0 | 0.00 | 0.00 | 0.00 | 49 | 1008.3 |
| 20260506033506 | 66 | 52 | 0.0 | 0.0 | 0.00 | 0.00 | 0.00 | 46 | 1008.3 |
| 20260506033002 | 66 | 111 | 0.0 | 0.0 | 0.00 | 0.00 | 0.00 | 48 | 1008.4 |
| 20260506032500 | 67 | 73 | 0.0 | 0.9 | 0.00 | 0.00 | 0.00 | 49 | 1008.3 |
| 20260506031956 | 66 | 114 | 0.0 | 0.9 | 0.00 | 0.00 | 0.00 | 50 | 1008.3 |
| 20260506031454 | 66 | 74 | 0.0 | 0.9 | 0.00 | 0.00 | 0.00 | 53 | 1008.3 |
| 20260506030951 | 65 | 108 | 0.9 | 1.7 | 0.00 | 0.00 | 0.00 | 50 | 1008.2 |
| 20260506030449 | 65 | 111 | 0.0 | 0.0 | 0.00 | 0.00 | 0.00 | 54 | 1008.4 |
| 20260506025946 | 65 | 111 | 0.0 | 0.0 | 0.00 | 0.00 | 0.00 | 54 | 1008.3 |
| 20260506025443 | 65 | 111 | 0.0 | 0.0 | 0.00 | 0.00 | 0.00 | 54 | 1008.3 |
| 20260506024939 | 65 | 111 | 0.0 | 0.0 | 0.00 | 0.00 | 0.00 | 53 | 1008.3 |
| 20260506024436 | 65 | 110 | 0.0 | 0.0 | 0.00 | 0.00 | 0.00 | 52 | 1008.3 |
| 20260506023932 | 66 | 101 | 0.0 | 0.0 | 0.00 | 0.00 | 0.00 | 54 | 1008.6 |
| 20260506023429 | 66 | 101 | 0.0 | 0.0 | 0.00 | 0.00 | 0.00 | 53 | 1008.4 |
| 20260506022926 | 66 | 101 | 0.0 | 0.0 | 0.00 | 0.00 | 0.00 | 53 | 1008.5 |
| 20260506022424 | 66 | 101 | 0.0 | 0.0 | 0.00 | 0.00 | 0.00 | 53 | 1008.7 |
| 20260506021921 | 67 | 101 | 0.0 | 0.0 | 0.00 | 0.00 | 0.00 | 52 | 1008.5 |
| 20260506021418 | 68 | 101 | 0.0 | 0.0 | 0.00 | 0.00 | 0.00 | 50 | 1008.8 |
| 20260506020915 | 68 | 101 | 0.0 | 0.0 | 0.00 | 0.00 | 0.00 | 51 | 1008.7 |
| 20260506020413 | 69 | 101 | 0.0 | 0.0 | 0.00 | 0.00 | 0.00 | 49 | 1008.7 |
| 20260506015910 | 70 | 101 | 0.0 | 0.0 | 0.00 | 0.00 | 0.00 | 46 | 1008.5 |
| 20260506015408 | 70 | 101 | 0.0 | 0.0 | 0.00 | 0.00 | 0.00 | 46 | 1008.4 |
| 20260506014904 | 70 | 101 | 0.0 | 0.0 | 0.00 | 0.00 | 0.00 | 44 | 1008.5 |
| 20260506014401 | 70 | 100 | 0.0 | 0.9 | 0.00 | 0.00 | 0.00 | 44 | 1008.5 |
| 20260506013857 | 70 | 100 | 0.0 | 0.0 | 0.00 | 0.00 | 0.00 | 45 | 1008.2 |
| 20260506013356 | 71 | 100 | 0.9 | 0.9 | 0.00 | 0.00 | 0.00 | 44 | 1008.4 |
| 20260506012851 | 71 | 100 | 0.0 | 0.9 | 0.00 | 0.00 | 0.00 | 46 | 1008.3 |
| 20260506012348 | 71 | 120 | 0.0 | 1.7 | 0.00 | 0.00 | 0.00 | 44 | 1008.3 |
| 20260506011846 | 71 | 70 | 0.9 | 1.7 | 0.00 | 0.00 | 0.00 | 45 | 1008.3 |
| 20260506011342 | 70 | 155 | 0.0 | 0.0 | 0.00 | 0.00 | 0.00 | 45 | 1008.3 |
| 20260506010840 | 70 | 118 | 0.0 | 0.9 | 0.00 | 0.00 | 0.00 | 47 | 1008.3 |
| 20260506010338 | 71 | 272 | 0.0 | 0.9 | 0.00 | 0.00 | 0.00 | 46 | 1008.0 |
| 20260506005834 | 71 | 272 | 0.0 | 0.0 | 0.00 | 0.00 | 0.00 | 46 | 1008.0 |
| 20260506005331 | 71 | 272 | 0.0 | 0.9 | 0.00 | 0.00 | 0.00 | 45 | 1007.8 |
| 20260506004827 | 72 | 126 | 0.0 | 0.9 | 0.00 | 0.00 | 0.00 | 45 | 1007.7 |
| 20260506004325 | 73 | 126 | 0.0 | 0.0 | 0.00 | 0.00 | 0.00 | 42 | 1008.0 |
| 20260506003821 | 73 | 126 | 0.0 | 0.0 | 0.00 | 0.00 | 0.00 | 41 | 1007.7 |
| 20260506003317 | 73 | 126 | 0.0 | 0.0 | 0.00 | 0.00 | 0.00 | 40 | 1007.7 |
| 20260506002813 | 73 | 126 | 0.0 | 0.0 | 0.00 | 0.00 | 0.00 | 39 | 1007.7 |
| 20260506002310 | 73 | 125 | 0.0 | 0.0 | 0.00 | 0.00 | 0.00 | 39 | 1007.3 |
| 20260506001806 | 73 | 127 | 0.0 | 0.9 | 0.00 | 0.00 | 0.00 | 39 | 1007.2 |
| 20260506001303 | 73 | 104 | 0.0 | 0.9 | 0.00 | 0.00 | 0.00 | 40 | 1007.3 |
| 20260506000800 | 73 | 262 | 0.0 | 0.0 | 0.00 | 0.00 | 0.00 | 39 | 1007.5 |
| 20260506000258 | 74 | 262 | 0.0 | 0.9 | 0.00 | 0.00 | 0.00 | 40 | 1007.2 |
| 20260505235754 | 74 | 345 | 0.0 | 0.9 | 0.00 | 0.00 | 0.00 | 39 | 1006.9 |
| 20260505235252 | 74 | 345 | 2.6 | 3.5 | 0.00 | 0.00 | 0.00 | 38 | 1007.2 |
| 20260505234749 | 74 | 213 | 2.6 | 3.5 | 0.00 | 0.00 | 0.00 | 40 | 1007.0 |
| 20260505234246 | 74 | 46 | 1.7 | 1.7 | 0.00 | 0.00 | 0.00 | 38 | 1007.0 |
| 20260505233743 | 74 | 338 | 0.9 | 1.7 | 0.00 | 0.00 | 0.00 | 39 | 1006.9 |
| 20260505233241 | 74 | 150 | 3.5 | 5.2 | 0.00 | 0.00 | 0.00 | 39 | 1007.2 |
| 20260505232738 | 74 | 336 | 0.9 | 1.7 | 0.00 | 0.00 | 0.00 | 39 | 1007.2 |
| 20260505232235 | 74 | 290 | 2.6 | 2.6 | 0.00 | 0.00 | 0.00 | 38 | 1007.0 |
| 20260505231731 | 75 | 126 | 0.9 | 1.7 | 0.00 | 0.00 | 0.00 | 38 | 1006.9 |
| 20260505231231 | 74 | 139 | 0.9 | 3.5 | 0.00 | 0.00 | 0.00 | 39 | 1007.0 |
| 20260505230728 | 75 | 109 | 0.0 | 0.9 | 0.00 | 0.00 | 0.00 | 38 | 1006.9 |
| 20260505230225 | 75 | 307 | 0.0 | 0.9 | 0.00 | 0.00 | 0.00 | 37 | 1007.2 |
| 20260505225721 | 75 | 139 | 0.0 | 0.9 | 0.00 | 0.00 | 0.00 | 38 | 1007.0 |
| 20260505225219 | 75 | 242 | 0.0 | 1.7 | 0.00 | 0.00 | 0.00 | 37 | 1006.8 |
| 20260505224714 | 75 | 116 | 0.9 | 6.1 | 0.00 | 0.00 | 0.00 | 38 | 1007.0 |
| 20260505224212 | 75 | 103 | 1.7 | 3.5 | 0.00 | 0.00 | 0.00 | 37 | 1007.0 |
| 20260505223709 | 75 | 274 | 0.9 | 3.5 | 0.00 | 0.00 | 0.00 | 37 | 1006.8 |
| 20260505223205 | 75 | 127 | 0.9 | 3.5 | 0.00 | 0.00 | 0.00 | 38 | 1006.7 |
| 20260505222701 | 75 | 96 | 1.7 | 2.6 | 0.00 | 0.00 | 0.00 | 38 | 1006.8 |
| 20260505222157 | 75 | 335 | 0.0 | 2.6 | 0.00 | 0.00 | 0.00 | 38 | 1006.8 |
| 20260505221655 | 75 | 342 | 0.0 | 0.9 | 0.00 | 0.00 | 0.00 | 38 | 1006.9 |
| 20260505221151 | 75 | 146 | 0.9 | 1.7 | 0.00 | 0.00 | 0.00 | 39 | 1007.0 |
| 20260505220648 | 75 | 338 | 0.0 | 0.9 | 0.00 | 0.00 | 0.00 | 39 | 1006.9 |
| 20260505220146 | 75 | 269 | 0.0 | 0.9 | 0.00 | 0.00 | 0.00 | 38 | 1006.7 |
| 20260505215643 | 75 | 127 | 0.0 | 1.7 | 0.00 | 0.00 | 0.00 | 38 | 1006.8 |
| 20260505215141 | 75 | 291 | 0.9 | 3.5 | 0.00 | 0.00 | 0.00 | 39 | 1006.8 |
| 20260505214639 | 75 | 356 | 0.0 | 2.6 | 0.00 | 0.00 | 0.00 | 40 | 1006.5 |
| 20260505214136 | 75 | 250 | 0.0 | 1.7 | 0.00 | 0.00 | 0.00 | 39 | 1006.4 |
| 20260505213634 | 75 | 359 | 0.0 | 0.9 | 0.00 | 0.00 | 0.00 | 38 | 1006.5 |
| 20260505213130 | 75 | 359 | 0.9 | 1.7 | 0.00 | 0.00 | 0.00 | 38 | 1006.6 |
| 20260505212626 | 76 | 284 | 0.0 | 2.6 | 0.00 | 0.00 | 0.00 | 38 | 1006.8 |
| 20260505212124 | 76 | 333 | 0.0 | 2.6 | 0.00 | 0.00 | 0.00 | 37 | 1006.7 |
| 20260505211621 | 76 | 154 | 0.0 | 2.6 | 0.00 | 0.00 | 0.00 | 38 | 1006.5 |
| 20260505211118 | 76 | 219 | 1.7 | 1.7 | 0.00 | 0.00 | 0.00 | 37 | 1006.4 |
| 20260505210614 | 76 | 60 | 1.7 | 5.2 | 0.00 | 0.00 | 0.00 | 36 | 1006.5 |
| 20260505210111 | 76 | 158 | 0.0 | 2.6 | 0.00 | 0.00 | 0.00 | 36 | 1006.5 |
| 20260505205609 | 76 | 258 | 0.0 | 1.7 | 0.00 | 0.00 | 0.00 | 36 | 1006.4 |
| 20260505205107 | 77 | 118 | 0.0 | 2.6 | 0.00 | 0.00 | 0.00 | 37 | 1006.3 |
| 20260505204603 | 77 | 71 | 3.5 | 5.2 | 0.00 | 0.00 | 0.00 | 36 | 1006.4 |
| 20260505204101 | 77 | 243 | 0.9 | 3.5 | 0.00 | 0.00 | 0.00 | 36 | 1006.4 |
| 20260505203557 | 78 | 91 | 0.9 | 2.6 | 0.00 | 0.00 | 0.00 | 36 | 1006.6 |
| 20260505203055 | 78 | 132 | 1.7 | 2.6 | 0.00 | 0.00 | 0.00 | 35 | 1006.5 |
| 20260505202550 | 79 | 272 | 0.0 | 7.0 | 0.00 | 0.00 | 0.00 | 36 | 1006.4 |
| 20260505202047 | 79 | 288 | 1.7 | 9.6 | 0.00 | 0.00 | 0.00 | 34 | 1006.2 |
| 20260505201543 | 80 | 303 | 1.7 | 3.5 | 0.00 | 0.00 | 0.00 | 34 | 1006.3 |
| 20260505201041 | 81 | 136 | 0.9 | 2.6 | 0.00 | 0.00 | 0.00 | 34 | 1006.5 |
| 20260505200539 | 82 | 203 | 0.9 | 1.7 | 0.00 | 0.00 | 0.00 | 33 | 1006.4 |
| 20260505200036 | 81 | 318 | 2.6 | 6.1 | 0.00 | 0.00 | 0.00 | 33 | 1006.5 |
| 20260505195532 | 82 | 255 | 0.9 | 5.2 | 0.00 | 0.00 | 0.00 | 31 | 1006.5 |
| 20260505195029 | 83 | 342 | 0.9 | 5.2 | 0.00 | 0.00 | 0.00 | 32 | 1006.6 |
| 20260505194526 | 84 | 142 | 4.3 | 6.1 | 0.00 | 0.00 | 0.00 | 31 | 1006.1 |
| 20260505194021 | 83 | 93 | 0.9 | 1.7 | 0.00 | 0.00 | 0.00 | 33 | 1006.3 |
| 20260505193519 | 84 | 351 | 1.7 | 11.3 | 0.00 | 0.00 | 0.00 | 31 | 1006.5 |
| 20260505193016 | 83 | 157 | 1.7 | 7.0 | 0.00 | 0.00 | 0.00 | 33 | 1006.5 |
| 20260505192515 | 82 | 147 | 0.9 | 2.6 | 0.00 | 0.00 | 0.00 | 33 | 1006.5 |
| 20260505192012 | 82 | 283 | 3.5 | 6.1 | 0.00 | 0.00 | 0.00 | 31 | 1006.6 |
| 20260505191510 | 82 | 275 | 1.7 | 6.1 | 0.00 | 0.00 | 0.00 | 31 | 1006.5 |
| 20260505191008 | 82 | 289 | 2.6 | 6.1 | 0.00 | 0.00 | 0.00 | 30 | 1006.8 |
| 20260505190502 | 80 | 141 | 1.7 | 1.7 | 0.00 | 0.00 | 0.00 | 35 | 1006.8 |
| 20260505185958 | 80 | 329 | 0.9 | 3.5 | 0.00 | 0.00 | 0.00 | 32 | 1007.2 |
| 20260505185455 | 80 | 357 | 1.7 | 1.7 | 0.00 | 0.00 | 0.00 | 33 | 1007.0 |
| 20260505184951 | 80 | 75 | 1.7 | 3.5 | 0.00 | 0.00 | 0.00 | 31 | 1007.2 |
| 20260505184448 | 80 | 358 | 1.7 | 1.7 | 0.00 | 0.00 | 0.00 | 32 | 1007.2 |
| 20260505183945 | 80 | 331 | 5.2 | 7.8 | 0.00 | 0.00 | 0.00 | 31 | 1007.3 |
| 20260505183442 | 81 | 3 | 3.5 | 5.2 | 0.00 | 0.00 | 0.00 | 31 | 1006.9 |
| 20260505182938 | 81 | 356 | 0.9 | 3.5 | 0.00 | 0.00 | 0.00 | 31 | 1007.5 |
| 20260505182436 | 81 | 268 | 0.9 | 3.5 | 0.00 | 0.00 | 0.00 | 33 | 1007.2 |
| 20260505181932 | 80 | 115 | 0.0 | 6.1 | 0.00 | 0.00 | 0.00 | 34 | 1007.8 |
| 20260505181429 | 81 | 199 | 0.9 | 1.7 | 0.00 | 0.00 | 0.00 | 33 | 1007.5 |
| 20260505180926 | 81 | 256 | 1.7 | 2.6 | 0.00 | 0.00 | 0.00 | 32 | 1007.6 |
| 20260505180422 | 80 | 97 | 4.3 | 7.0 | 0.00 | 0.00 | 0.00 | 33 | 1007.6 |
| 20260505175919 | 79 | 316 | 0.9 | 2.6 | 0.00 | 0.00 | 0.00 | 36 | 1007.4 |
| 20260505175415 | 80 | 327 | 1.7 | 2.6 | 0.00 | 0.00 | 0.00 | 36 | 1007.6 |
| 20260505174912 | 81 | 304 | 1.7 | 5.2 | 0.00 | 0.00 | 0.00 | 35 | 1007.4 |
| 20260505174409 | 79 | 118 | 0.0 | 0.9 | 0.00 | 0.00 | 0.00 | 36 | 1007.7 |
| 20260505173906 | 80 | 298 | 3.5 | 7.8 | 0.00 | 0.00 | 0.00 | 35 | 1007.7 |
| 20260505173402 | 80 | 287 | 2.6 | 5.2 | 0.00 | 0.00 | 0.00 | 35 | 1007.3 |
| 20260505172859 | 80 | 270 | 2.6 | 6.1 | 0.00 | 0.00 | 0.00 | 34 | 1007.7 |
| 20260505172357 | 78 | 286 | 0.9 | 1.7 | 0.00 | 0.00 | 0.00 | 37 | 1007.5 |
| 20260505171856 | 78 | 238 | 1.7 | 5.2 | 0.00 | 0.00 | 0.00 | 37 | 1007.7 |
| 20260505171353 | 79 | 336 | 1.7 | 6.1 | 0.00 | 0.00 | 0.00 | 36 | 1007.5 |
| 20260505170850 | 80 | 34 | 1.7 | 5.2 | 0.00 | 0.00 | 0.00 | 36 | 1007.8 |
| 20260505170347 | 79 | 93 | 0.0 | 2.6 | 0.00 | 0.00 | 0.00 | 38 | 1007.9 |
| 20260505165842 | 79 | 124 | 1.7 | 3.5 | 0.00 | 0.00 | 0.00 | 38 | 1007.6 |
| 20260505165338 | 78 | 350 | 1.7 | 5.2 | 0.00 | 0.00 | 0.00 | 38 | 1007.7 |
| 20260505164834 | 79 | 295 | 1.7 | 3.5 | 0.00 | 0.00 | 0.00 | 37 | 1007.7 |
| 20260505164331 | 78 | 149 | 1.7 | 2.6 | 0.00 | 0.00 | 0.00 | 38 | 1007.9 |
| 20260505163829 | 78 | 325 | 2.6 | 6.1 | 0.00 | 0.00 | 0.00 | 37 | 1008.1 |
| 20260505163327 | 79 | 311 | 2.6 | 3.5 | 0.00 | 0.00 | 0.00 | 37 | 1008.0 |
| 20260505162825 | 78 | 319 | 1.7 | 3.5 | 0.00 | 0.00 | 0.00 | 38 | 1008.1 |
| 20260505162321 | 79 | 215 | 3.5 | 5.2 | 0.00 | 0.00 | 0.00 | 37 | 1008.1 |
| 20260505161819 | 79 | 278 | 0.9 | 2.6 | 0.00 | 0.00 | 0.00 | 38 | 1008.3 |
| 20260505161316 | 79 | 272 | 3.5 | 3.5 | 0.00 | 0.00 | 0.00 | 37 | 1008.3 |
| 20260505160813 | 79 | 336 | 1.7 | 3.5 | 0.00 | 0.00 | 0.00 | 39 | 1008.1 |
| 20260505160311 | 80 | 169 | 0.9 | 1.7 | 0.00 | 0.00 | 0.00 | 38 | 1008.2 |
| 20260505153250 | 77 | 142 | 0.0 | 2.6 | 0.00 | 0.00 | 0.00 | 43 | 1008.6 |
| 20260505152747 | 76 | 61 | 0.9 | 1.7 | 0.00 | 0.00 | 0.00 | 43 | 1008.8 |
| 20260505152243 | 75 | 293 | 1.7 | 2.6 | 0.00 | 0.00 | 0.00 | 43 | 1008.8 |
| 20260505151737 | 75 | 147 | 3.5 | 3.5 | 0.00 | 0.00 | 0.00 | 44 | 1008.6 |
| 20260505151235 | 75 | 117 | 3.5 | 5.2 | 0.00 | 0.00 | 0.00 | 42 | 1008.6 |
| 20260505150732 | 75 | 325 | 2.6 | 3.5 | 0.00 | 0.00 | 0.00 | 43 | 1008.6 |
| 20260505150230 | 75 | 235 | 1.7 | 5.2 | 0.00 | 0.00 | 0.00 | 43 | 1008.8 |
| 20260505140159 | 73 | 289 | 2.6 | 2.6 | 0.00 | 0.00 | 0.00 | 44 | 1008.7 |
| 20260505130123 | 70 | 306 | 1.7 | 2.6 | 0.00 | 0.00 | 0.00 | 48 | 1009.0 |
| 20260505124613 | 70 | 7 | 0.9 | 2.6 | 0.00 | 0.00 | 0.00 | 50 | 1008.8 |
| 20260505124109 | 69 | 69 | 0.0 | 0.9 | 0.00 | 0.00 | 0.00 | 51 | 1009.1 |
| 20260505123605 | 69 | 274 | 0.0 | 0.9 | 0.00 | 0.00 | 0.00 | 51 | 1009.0 |
| 20260505123102 | 69 | 285 | 1.7 | 1.7 | 0.00 | 0.00 | 0.00 | 50 | 1008.9 |
| 20260505122559 | 67 | 282 | 0.0 | 0.0 | 0.00 | 0.00 | 0.00 | 53 | 1008.7 |
| 20260505122056 | 66 | 288 | 1.7 | 2.6 | 0.00 | 0.00 | 0.00 | 53 | 1009.0 |
| 20260505121552 | 65 | 252 | 0.0 | 0.0 | 0.00 | 0.00 | 0.00 | 57 | 1008.9 |
| 20260505121049 | 64 | 252 | 0.0 | 0.0 | 0.00 | 0.00 | 0.00 | 59 | 1009.0 |
| 20260505120546 | 62 | 297 | 0.9 | 1.7 | 0.00 | 0.00 | 0.00 | 63 | 1009.0 |
| 20260505120041 | 60 | 122 | 0.0 | 0.9 | 0.00 | 0.00 | 0.00 | 68 | 1008.9 |
| 20260505115536 | 59 | 111 | 0.0 | 0.0 | 0.00 | 0.00 | 0.00 | 70 | 1009.0 |
| 20260505115034 | 59 | 111 | 0.0 | 0.0 | 0.00 | 0.00 | 0.00 | 71 | 1008.8 |
| 20260505114530 | 58 | 111 | 0.0 | 0.0 | 0.00 | 0.00 | 0.00 | 73 | 1008.8 |
| 20260505114027 | 57 | 111 | 0.0 | 0.0 | 0.00 | 0.00 | 0.00 | 75 | 1008.9 |
| 20260505113523 | 57 | 111 | 0.0 | 0.0 | 0.00 | 0.00 | 0.00 | 76 | 1009.0 |
| 20260505113020 | 57 | 111 | 0.0 | 0.0 | 0.00 | 0.00 | 0.00 | 78 | 1008.9 |
| 20260505112517 | 56 | 111 | 0.0 | 0.9 | 0.00 | 0.00 | 0.00 | 77 | 1008.8 |
| 20260505112015 | 56 | 111 | 0.0 | 0.9 | 0.00 | 0.00 | 0.00 | 79 | 1008.8 |
| 20260505111513 | 55 | 111 | 0.0 | 0.0 | 0.00 | 0.00 | 0.00 | 78 | 1008.8 |
| 20260505111010 | 55 | 112 | 0.0 | 0.0 | 0.00 | 0.00 | 0.00 | 80 | 1008.7 |
| 20260505110507 | 54 | 111 | 0.0 | 0.9 | 0.00 | 0.00 | 0.00 | 82 | 1008.8 |
| 20260505101939 | 52 | 117 | 0.0 | 0.9 | 0.00 | 0.00 | 0.00 | 86 | 1008.5 |
| 20260505101438 | 52 | 117 | 0.0 | 0.9 | 0.00 | 0.00 | 0.00 | 84 | 1008.6 |
| 20260505100934 | 52 | 117 | 0.0 | 0.0 | 0.00 | 0.00 | 0.00 | 80 | 1008.6 |
| 20260505100432 | 52 | 117 | 0.0 | 0.0 | 0.00 | 0.00 | 0.00 | 80 | 1008.3 |
| 20260505095927 | 52 | 117 | 0.0 | 0.0 | 0.00 | 0.00 | 0.00 | 80 | 1008.5 |
| 20260505095424 | 52 | 117 | 0.0 | 0.0 | 0.00 | 0.00 | 0.00 | 79 | 1008.3 |
| 20260505094920 | 53 | 117 | 0.0 | 0.0 | 0.00 | 0.00 | 0.00 | 79 | 1008.2 |
| 20260505094418 | 53 | 117 | 0.9 | 0.9 | 0.00 | 0.00 | 0.00 | 79 | 1008.1 |
| 20260505093914 | 53 | 117 | 0.0 | 0.0 | 0.00 | 0.00 | 0.00 | 79 | 1008.3 |
| 20260505093411 | 53 | 117 | 0.0 | 0.0 | 0.00 | 0.00 | 0.00 | 79 | 1008.3 |
| 20260505092908 | 53 | 116 | 0.0 | 0.0 | 0.00 | 0.00 | 0.00 | 80 | 1008.4 |
| 20260505092406 | 53 | 117 | 0.0 | 0.0 | 0.00 | 0.00 | 0.00 | 81 | 1008.3 |
| 20260505091903 | 53 | 117 | 0.0 | 0.0 | 0.00 | 0.00 | 0.00 | 81 | 1008.1 |
| 20260505091401 | 53 | 117 | 0.0 | 0.0 | 0.00 | 0.00 | 0.00 | 80 | 1008.2 |
| 20260505090858 | 53 | 108 | 0.0 | 0.0 | 0.00 | 0.00 | 0.00 | 79 | 1008.3 |
| 20260505090356 | 53 | 107 | 0.0 | 0.0 | 0.00 | 0.00 | 0.00 | 80 | 1008.0 |
| 20260505085853 | 54 | 96 | 0.0 | 0.0 | 0.00 | 0.00 | 0.00 | 80 | 1008.2 |
| 20260505085351 | 54 | 96 | 0.0 | 0.0 | 0.00 | 0.00 | 0.00 | 79 | 1008.0 |
| 20260505084849 | 54 | 96 | 0.0 | 0.0 | 0.00 | 0.00 | 0.00 | 78 | 1008.1 |
| 20260505084347 | 54 | 96 | 0.0 | 0.9 | 0.00 | 0.00 | 0.00 | 80 | 1008.1 |
| 20260505083845 | 54 | 96 | 0.0 | 0.0 | 0.00 | 0.00 | 0.00 | 78 | 1007.9 |
| 20260505083342 | 54 | 96 | 0.9 | 0.9 | 0.00 | 0.00 | 0.00 | 80 | 1008.1 |
| 20260505082838 | 54 | 54 | 0.0 | 0.0 | 0.00 | 0.00 | 0.00 | 80 | 1008.2 |
| 20260505082334 | 54 | 54 | 0.0 | 0.0 | 0.00 | 0.00 | 0.00 | 79 | 1008.1 |
| 20260505081831 | 54 | 54 | 0.0 | 0.9 | 0.00 | 0.00 | 0.00 | 78 | 1008.0 |
| 20260505081328 | 54 | 54 | 0.0 | 0.9 | 0.00 | 0.00 | 0.00 | 78 | 1007.9 |
| 20260505080825 | 54 | 54 | 0.0 | 1.7 | 0.00 | 0.00 | 0.00 | 77 | 1007.9 |
| 20260505080320 | 54 | 237 | 0.0 | 0.0 | 0.00 | 0.00 | 0.00 | 76 | 1008.4 |
| 20260505075816 | 54 | 237 | 0.0 | 0.0 | 0.00 | 0.00 | 0.00 | 75 | 1008.1 |
| 20260505075313 | 54 | 237 | 0.0 | 0.0 | 0.00 | 0.00 | 0.00 | 76 | 1008.2 |
| 20260505074810 | 54 | 237 | 0.0 | 0.0 | 0.00 | 0.00 | 0.00 | 76 | 1008.2 |
| 20260505074307 | 54 | 237 | 0.0 | 0.0 | 0.00 | 0.00 | 0.00 | 75 | 1008.3 |
| 20260505073805 | 54 | 237 | 0.0 | 0.0 | 0.00 | 0.00 | 0.00 | 75 | 1007.9 |
| 20260505073303 | 54 | 237 | 0.0 | 0.0 | 0.00 | 0.00 | 0.00 | 75 | 1008.1 |
| 20260505072759 | 55 | 237 | 0.0 | 0.0 | 0.00 | 0.00 | 0.00 | 75 | 1008.1 |
| 20260505072255 | 55 | 237 | 0.0 | 0.0 | 0.00 | 0.00 | 0.00 | 72 | 1008.0 |
| 20260505071751 | 56 | 237 | 0.0 | 0.0 | 0.00 | 0.00 | 0.00 | 70 | 1008.0 |
| 20260505071248 | 56 | 237 | 0.0 | 0.0 | 0.00 | 0.00 | 0.00 | 70 | 1008.0 |
| 20260505070745 | 56 | 237 | 0.0 | 0.0 | 0.00 | 0.00 | 0.00 | 69 | 1008.1 |
| 20260505070241 | 57 | 237 | 0.0 | 0.0 | 0.00 | 0.00 | 0.00 | 67 | 1008.1 |
| 20260505065737 | 57 | 237 | 0.0 | 0.0 | 0.00 | 0.00 | 0.00 | 66 | 1008.2 |
| 20260505065235 | 57 | 237 | 0.0 | 0.0 | 0.00 | 0.00 | 0.00 | 65 | 1008.2 |
| 20260505064732 | 57 | 237 | 0.0 | 0.0 | 0.00 | 0.00 | 0.00 | 65 | 1008.2 |
| 20260505064229 | 57 | 237 | 0.0 | 0.0 | 0.00 | 0.00 | 0.00 | 64 | 1008.6 |
| 20260505063727 | 58 | 237 | 0.0 | 0.0 | 0.00 | 0.00 | 0.00 | 63 | 1008.3 |
| 20260505063223 | 58 | 237 | 0.0 | 0.0 | 0.00 | 0.00 | 0.00 | 64 | 1008.3 |
| 20260505062719 | 58 | 237 | 0.0 | 0.0 | 0.00 | 0.00 | 0.00 | 63 | 1008.3 |
| 20260505062217 | 58 | 237 | 0.0 | 0.0 | 0.00 | 0.00 | 0.00 | 64 | 1008.4 |
| 20260505061713 | 58 | 237 | 0.0 | 0.0 | 0.00 | 0.00 | 0.00 | 63 | 1008.5 |
| 20260505061212 | 57 | 237 | 0.0 | 0.0 | 0.00 | 0.00 | 0.00 | 68 | 1008.5 |
| 20260505060709 | 57 | 237 | 0.0 | 0.0 | 0.00 | 0.00 | 0.00 | 68 | 1008.5 |
| 20260505060205 | 57 | 237 | 0.0 | 0.0 | 0.00 | 0.00 | 0.00 | 67 | 1008.6 |
| 20260505055701 | 57 | 237 | 0.0 | 0.0 | 0.00 | 0.00 | 0.00 | 69 | 1008.6 |
| 20260505055158 | 57 | 237 | 0.0 | 0.9 | 0.00 | 0.00 | 0.00 | 70 | 1008.5 |
| 20260505054655 | 57 | 237 | 0.0 | 0.0 | 0.00 | 0.00 | 0.00 | 68 | 1008.6 |
| 20260505054153 | 57 | 237 | 0.0 | 0.0 | 0.00 | 0.00 | 0.00 | 66 | 1008.6 |
| 20260505053651 | 56 | 237 | 0.0 | 0.0 | 0.00 | 0.00 | 0.00 | 65 | 1008.6 |
| 20260505053147 | 56 | 237 | 0.0 | 0.0 | 0.00 | 0.00 | 0.00 | 63 | 1008.4 |
| 20260505052644 | 56 | 237 | 0.0 | 0.0 | 0.00 | 0.00 | 0.00 | 63 | 1008.6 |
| 20260505052141 | 56 | 237 | 0.0 | 0.0 | 0.00 | 0.00 | 0.00 | 64 | 1008.7 |
| 20260505051637 | 56 | 237 | 0.0 | 0.0 | 0.00 | 0.00 | 0.00 | 64 | 1008.7 |
| 20260505051136 | 56 | 237 | 0.0 | 0.0 | 0.00 | 0.00 | 0.00 | 63 | 1008.5 |
| 20260505050633 | 57 | 237 | 0.0 | 0.0 | 0.00 | 0.00 | 0.00 | 62 | 1008.4 |
| 20260505050132 | 57 | 237 | 0.0 | 0.9 | 0.00 | 0.00 | 0.00 | 61 | 1008.4 |
| 20260505041601 | 60 | 237 | 0.0 | 0.9 | 0.00 | 0.00 | 0.00 | 51 | 1008.1 |
| 20260505041059 | 61 | 237 | 0.0 | 0.9 | 0.00 | 0.00 | 0.00 | 51 | 1008.2 |
| 20260505040556 | 61 | 237 | 0.0 | 0.9 | 0.00 | 0.00 | 0.00 | 50 | 1007.9 |
| 20260505040053 | 61 | 237 | 0.0 | 0.9 | 0.00 | 0.00 | 0.00 | 50 | 1008.1 |
| 20260505035549 | 61 | 237 | 0.0 | 1.7 | 0.00 | 0.00 | 0.00 | 50 | 1008.2 |
| 20260505035046 | 61 | 125 | 0.0 | 1.7 | 0.00 | 0.00 | 0.00 | 49 | 1007.9 |
| 20260505034542 | 61 | 160 | 0.0 | 1.7 | 0.00 | 0.00 | 0.00 | 50 | 1007.7 |